Regional Weather Roundup
Issued by NWS

Home | Current Version | Previous Version | Text Only | Print | Product List | Glossary Off
Versions: 1 2 3 4 5 6 7 8 9 10 11 12 13 14 15 16 17 18 19 20 21 22 23 24 25 26 27 28 29 30 31 32 33 34 35 36 37 38 39 40 41 42 43 44 45 46 47 48 49 50

000
ASUS43 KLOT 192006
RWRIL

ILLINOIS REGIONAL WEATHER ROUNDUP
NATIONAL WEATHER SERVICE CHICAGO/ROMEOVILLE IL
300 PM CDT SAT APR 19 2014

NOTE: "FAIR" INDICATES FEW OR NO CLOUDS BELOW 12,000 FEET WITH NO
SIGNIFICANT WEATHER AND/OR OBSTRUCTIONS TO VISIBILITY.

* THESE STATIONS ARE NOT UNDER NWS QUALITY CONTROL. THEY ALSO MAY NOT
  REPORT WEATHER SUCH AS PRECIPITATION OR FOG.

ILZ001-002-007-009-015-016-024-192100-
NORTHWEST ILLINOIS

CITY           SKY/WX    TMP DP  RH WIND       PRES   REMARKS
MOLINE         MOSUNNY   73  35  25 S10G20    30.19F
STERLING*      MOSUNNY   70  36  28 S10G17    30.23F
SAVANNA*       MOSUNNY   72  32  22 S12G17    30.22F
$$

ILZ003-004-008-010-011-017-018-192100-
NORTH CENTRAL ILLINOIS

CITY           SKY/WX    TMP DP  RH WIND       PRES   REMARKS
ROCKFORD       PTSUNNY   67  35  30 S12       30.26F
FREEPORT*      MOSUNNY   67  33  27 S14G21    30.27F
ROCHELLE*      SUNNY     68  33  27 S16       30.26F
DE KALB*       SUNNY     65  34  31 SE14      30.27F
PERU*          SUNNY     69  34  27 SE9       30.25F
$$

ILZ005-006-012>014-019>023-192100-
NORTHEAST ILLINOIS

CITY           SKY/WX    TMP DP  RH WIND       PRES   REMARKS
CHICAGO-OHARE  PTSUNNY   63  36  36 SE9       30.29F
CHICAGO-MIDWAY PTSUNNY   61  40  45 E9        30.29F
AURORA         MOSUNNY   68  35  29 S10G18    30.27F
LANSING*       MOSUNNY   66  35  32 S8        30.29F
WAUKEGAN       PTSUNNY   50  36  58 E8        30.30F
DUPAGE AIRPORT MOSUNNY   67  34  29 SE10      30.27F
KANKAKEE*      MOSUNNY   67  38  33 SE14G21   30.28F
WHEELING       PTSUNNY   60  40  47 SE9       30.31F
MORRIS*        MOSUNNY   68  23  18 S10G16    30.26F
ROMEOVILLE*    PTSUNNY   67  32  27 SE9       30.27F
NORTHERLY ISL    N/A     50  38  63 MISG        N/A
$$

LMZ740>746-192100-
SOUTHERN LAKE MICHIGAN

STATION/POSITION SKY/WX   TEMP    WIND        PRES    VSBY  WAVE
                          AIR SEA DIR/SP/G                  HT/PER
                          (F)     (DEG/KT/KT) (MB)    (MI)  (FT/S)
WAUKEGAN HARBOR            41      90/  2/  3 1028.1F
HARRISON CRIB              42      10/  5/  5   N/A
BURNHAM HARBOR             51     350/  5/  7   N/A
CALUMET HARBOR             48      20/  7/ 10 1026.9F
MICHIGAN CITY              61     110/  9/ 12   N/A
$$

ILZ025>027-034>036-040-047-049-050-058-095>099-192100-
WEST-CENTRAL ILLINOIS

CITY           SKY/WX    TMP DP  RH WIND       PRES   REMARKS
QUINCY         MOSUNNY   72  41  32 SE9       30.19F
GALESBURG*     SUNNY     71  40  32 S8        30.22S
MACOMB*        SUNNY     73  37  27 S8        30.23F
JACKSONVILLE*  SUNNY     74  39  27 SE6       30.22F
PITTSFIELD*    SUNNY     74  38  26 SE13      30.21F
$$

ILZ028>032-037-038-041>044-048-051>054-059>061-192100-
CENTRAL ILLINOIS

CITY           SKY/WX    TMP DP  RH WIND       PRES   REMARKS
PONTIAC        MOSUNNY   72  30  21 E10       30.26F
BLOOMINGTON    MOSUNNY   70  32  24 SE12G23   30.25F
DECATUR        SUNNY     72  30  21 SE6       30.24F
PEORIA         SUNNY     73  35  25 S7        30.23F
LACON*         SUNNY     71  33  24 S9        30.23F
LINCOLN*       SUNNY     74  33  22 S7        30.22F
SPRINGFIELD    SUNNY     73  37  27 SE6       30.23F
TAYLORVILLE    SUNNY     70  39  32 S6        30.23F
$$

ILZ033-039-045-046-055>057-062-063-192100-
EAST-CENTRAL ILLINOIS

CITY           SKY/WX    TMP DP  RH WIND       PRES   REMARKS
CHAMPAIGN      SUNNY     72  33  24 SE8       30.25F
RANTOUL*       SUNNY     73  30  20 CALM      30.26F
MATTOON        SUNNY     70  36  28 S9        30.24F
PARIS*         SUNNY     71  37  28 SE8       30.25F
$$

ILZ079-100>102-192100-
SOUTHWEST ILLINOIS

CITY           SKY/WX    TMP DP  RH WIND       PRES   REMARKS
ALTON          SUNNY     72  37  28 S9        30.22F
BELLEVILLE     SUNNY     73  46  37 E9        30.21F
CAHOKIA*       SUNNY     74  43  32 SE8       30.21F
SPARTA*        SUNNY     72  43  35 E3        30.22F
$$

ILZ064>066-069>071-074>076-080>082-084>086-088>090-092>094-192100-
SOUTH-CENTRAL ILLINOIS

CITY           SKY/WX    TMP DP  RH WIND       PRES   REMARKS
CARBONDALE     SUNNY     74  42  31 MISG      30.20F
CAIRO*         SUNNY     79  40  24 E9G17     30.19F
MARION         SUNNY     75  41  29 SE12      30.21
MT. VERNON     SUNNY     73  43  33 E10       30.23F
CENTRALIA*       N/A     73  39  28 CALM      30.22F
SALEM*         SUNNY     73  45  36 SE6         N/A
METROPOLIS*    SUNNY     76  33  21 NE5       30.18F
$$

ILZ067-068-072-073-078-083-087-091-192100-
SOUTHEAST ILLINOIS

CITY           SKY/WX    TMP DP  RH WIND       PRES   REMARKS
FAIRFIELD*     SUNNY     73  41  31 SE5       30.21F
HARRISBURG*    SUNNY     74  42  31 E10       30.22F
ROBINSON*      SUNNY     74  42  31 E8        30.24F
CARMI*         SUNNY     74  43  32 NE3       30.21F
$$

ABBREVIATIONS USED IN REMARKS
   TC - TEMPERATURE IN CELSIUS
  WCI - WIND CHILL INDEX
   HX - HEAT INDEX
  VSB - VISIBILITY
$$




USA.gov is the U.S. government's official web portal to all federal, state and local government web resources and services.